[[{"header":{"parameterUnit":"m.s-1","parameterCategory":1,"la1":30.2992,"la2":30.254,"lo1":-89.0895,"lo2":-89.0443,"dy":0.0025,"dx":0.0025,"nx":19,"ny":19,"refTime":"2026-03-14T21:00:00:Z","depth":0,"parameterNumber":2,"parameterNumberName":"U-component_of_WINDS"},"data":[0,0,0,-1.231,-1.231,-1.2312,-1.2312,-1.2317,-1.2317,0,0,0,0,0,0,0,0,0,0,0,-1.2309,-1.2309,-1.231,-1.231,-1.2312,-1.2312,-1.2317,-1.2317,0,0,0,0,0,0,0,0,0,0,0,-1.2309,-1.2309,-1.2309,-1.231,-1.2312,-1.2312,-1.2317,-1.2315,0,0,0,0,0,0,0,0,0,0,-1.2313,-1.2311,-1.2309,-1.2309,-1.231,-1.2312,-1.2312,-1.2315,-1.2315,-1.2317,0,-1.2317,0,-1.2317,-1.2318,-1.2318,0,0,0,-1.231,-1.2311,-1.2312,-1.2309,-1.231,-1.2312,-1.2311,-1.2315,-1.2315,-1.2317,-1.2317,-1.2317,-1.2317,-1.2318,-1.2318,-1.2325,-1.2325,0,0,-1.231,-1.231,-1.2312,-1.2312,-1.2311,-1.2311,-1.2311,-1.2315,-1.2315,-1.2317,-1.2317,-1.2317,-1.2318,-1.2318,-1.2325,-1.2325,0,0,0,-1.231,-1.231,-1.231,-1.2312,-1.2312,-1.2311,-1.2311,-1.2315,-1.2316,-1.2317,-1.2317,-1.2318,-1.2318,-1.2325,-1.2325,-1.2325,0,0,0,-1.231,-1.2309,-1.231,-1.231,-1.2312,-1.2313,-1.2311,-1.2315,-1.2316,-1.2317,-1.2318,-1.2318,-1.2324,-1.2325,-1.2325,-1.2326,0,0,0,-1.2309,-1.2309,-1.2309,-1.231,-1.2311,-1.2313,-1.2314,-1.2315,-1.2316,-1.2318,-1.2318,-1.2324,-1.2325,-1.2325,-1.2325,-1.2328,0,0,0,-1.2309,-1.2309,-1.2309,-1.2311,-1.2311,-1.2314,-1.2314,-1.2316,-1.2318,-1.2318,-1.2324,-1.2325,-1.2325,-1.2325,-1.2328,-1.233,-1.2331,0,0,-1.2309,-1.2309,-1.231,-1.231,-1.2313,-1.2313,-1.2317,-1.2319,-1.232,-1.2323,-1.2323,-1.2325,-1.2325,-1.2328,-1.2335,-1.2336,0,0,0,-1.231,-1.2311,-1.2312,-1.2314,-1.2315,-1.2318,-1.2319,-1.2321,-1.2324,-1.2321,-1.2327,-1.2327,-1.2329,-1.233,-1.233,-1.2332,-1.2325,-1.2325,-1.2325,-1.231,-1.2312,-1.2314,-1.2316,-1.2318,-1.2321,-1.2323,-1.2326,-1.2326,-1.2328,-1.2329,-1.2333,-1.2334,-1.2334,-1.2336,-1.233,-1.233,-1.233,-1.233,-1.2312,-1.2313,-1.2316,-1.2318,-1.2321,-1.2324,-1.2328,-1.2329,-1.2333,-1.2331,-1.2333,-1.2332,-1.2335,-1.2337,-1.233,-1.233,-1.233,-1.233,-1.233,-1.2311,-1.2313,-1.2314,-1.2319,-1.2322,-1.2325,-1.233,-1.2332,-1.2334,-1.2335,-1.2338,-1.2338,-1.2338,-1.2336,-1.2336,-1.2336,-1.2336,-1.2336,-1.2336,-1.231,-1.2313,-1.2315,-1.2319,-1.2322,-1.2326,-1.2331,-1.2334,-1.2338,-1.2339,-1.2339,-1.2341,-1.2335,-1.2333,-1.2337,-1.2337,-1.2337,-1.2336,-1.2336,-1.2311,-1.2312,-1.2316,-1.2319,-1.2325,-1.233,-1.2333,-1.234,-1.2343,-1.2345,-1.2347,-1.2342,-1.2342,-1.2342,-1.2341,-1.2346,-1.2346,-1.2346,-1.2346,-1.2311,-1.2312,-1.2318,-1.2323,-1.2328,-1.2332,-1.2339,-1.2345,-1.235,-1.2353,-1.2352,-1.2351,-1.2351,-1.2351,-1.2351,-1.235,-1.2357,-1.2357,-1.2357,-1.2312,-1.2314,-1.2319,-1.2324,-1.2329,-1.2335,-1.2342,-1.2349,-1.2356,-1.2358,-1.2355,-1.2355,-1.2353,-1.2352,-1.2353,-1.2352,-1.235,0,0]},{"header":{"parameterUnit":"m.s-1","parameterCategory":1,"la1":30.2992,"la2":30.254,"lo1":-89.0895,"lo2":-89.0443,"dy":0.0025,"dx":0.0025,"nx":19,"ny":19,"refTime":"2026-03-14T21:00:00:Z","depth":0,"parameterNumber":3,"parameterNumberName":"V-component_of_WINDS"},"data":[0,0,0,0.5965,0.5967,0.6049,0.6049,0.6155,0.6156,0,0,0,0,0,0,0,0,0,0,0,0.5941,0.5942,0.5965,0.5967,0.6049,0.6049,0.6155,0.6156,0,0,0,0,0,0,0,0,0,0,0,0.5941,0.5942,0.5943,0.5967,0.6049,0.6049,0.6155,0.6093,0,0,0,0,0,0,0,0,0,0,0.6013,0.5991,0.5942,0.5943,0.5968,0.6049,0.6049,0.609,0.6096,0.6118,0,0.6138,0,0.6149,0.6163,0.6163,0,0,0,0.5967,0.5985,0.6007,0.5943,0.5969,0.6049,0.6012,0.6093,0.6101,0.6128,0.6139,0.6143,0.615,0.6164,0.6164,0.6291,0.6292,0,0,0.5962,0.5956,0.6002,0.6012,0.5999,0.6009,0.6014,0.6098,0.611,0.614,0.6146,0.6152,0.6164,0.6165,0.6291,0.6292,0,0,0,0.595,0.5953,0.5973,0.6008,0.6022,0.6012,0.6018,0.6107,0.6114,0.6147,0.6153,0.6165,0.6166,0.629,0.6291,0.6315,0,0,0,0.5947,0.5946,0.5971,0.5968,0.6021,0.6066,0.6024,0.6108,0.6118,0.6153,0.6165,0.6167,0.629,0.6291,0.6313,0.6328,0,0,0,0.5936,0.5944,0.5956,0.5967,0.6002,0.6064,0.6076,0.611,0.6122,0.6164,0.6168,0.6289,0.629,0.6311,0.6325,0.636,0,0,0,0.5923,0.5976,0.5957,0.6019,0.6002,0.6079,0.6076,0.6133,0.6172,0.6166,0.629,0.6291,0.6311,0.6323,0.6358,0.6389,0.6401,0,0,0.5987,0.5984,0.6021,0.6006,0.6085,0.6067,0.6149,0.6191,0.62,0.6261,0.6264,0.6314,0.6325,0.636,0.647,0.648,0,0,0,0.604,0.6067,0.6089,0.6126,0.6159,0.6188,0.6218,0.6233,0.6285,0.623,0.6336,0.6343,0.6363,0.6378,0.6387,0.6405,0.6298,0.6297,0.6297,0.6123,0.6132,0.6195,0.6215,0.625,0.628,0.631,0.6336,0.6335,0.636,0.6378,0.6444,0.6462,0.6468,0.6487,0.6395,0.6395,0.6395,0.6395,0.6219,0.6259,0.6256,0.6316,0.6326,0.6377,0.6409,0.6406,0.6455,0.6431,0.645,0.6424,0.6478,0.6495,0.6397,0.6397,0.6397,0.6397,0.6396,0.6274,0.6295,0.6313,0.6368,0.6409,0.6427,0.6474,0.6481,0.6489,0.6507,0.6527,0.6527,0.6528,0.6516,0.6516,0.6517,0.6517,0.6517,0.6517,0.6325,0.6345,0.6383,0.6423,0.6448,0.6482,0.6513,0.6538,0.6568,0.6569,0.6569,0.6566,0.6482,0.646,0.6521,0.652,0.652,0.6519,0.6519,0.642,0.64,0.646,0.6485,0.6533,0.6573,0.6582,0.6632,0.6654,0.6677,0.667,0.6606,0.6603,0.6597,0.658,0.6667,0.6667,0.6667,0.6667,0.6467,0.6466,0.653,0.6569,0.6609,0.6623,0.6692,0.6717,0.6739,0.6754,0.6742,0.6719,0.6712,0.6714,0.6705,0.6689,0.6802,0.6802,0.6803,0.6526,0.653,0.6586,0.6608,0.6646,0.6679,0.6744,0.679,0.6811,0.6808,0.6765,0.6759,0.6723,0.671,0.6706,0.6692,0.6663,0,0]}]]